GSLV R/B, 56760

Orbit data source: Space-Track

GSLV R/B, 56760 is space debris in HEO originally from a launch on Mon, 29 May 2023 UTC launched from the Sirharikota (SRI). Debris objects in space refer to the collection of defunct objects orbiting the Earth. Examples of debris include non-operational satellites, rocket bodies, and fragments generated from explosions, collisions, or faulty payload assembly.

Loading next visibility...
Identifier
56760, 2023-076B
Orbit
HEO
Country
Flag of ININ / IND
Related business
Manufacturer
ISRO
Mission
Spacecraft
Bus & Motor
CUS15, Unknown motor
Mass
2,630 kg wet, 2,630 kg dry
Launch date (UTC)
2023-05-29 (3 years ago)
Launch vehicle
Unknown
Launch site
Sirharikota (SRI)
Object type
Payload
Rocket body
Debris
Shape & HBR
Cyl, 4.3 m
Radar Cross Section
22.211 m², Large (>1 m²)

Expand to show TLE details & history
Last TLE update: 2 days ago

TLE from 2 days ago
0 GSLV R/B
1 56760U 23076B   26170.99963634  .00021489  00000-0  10262-2 0  9994
2 56760  19.2255  45.2098 6461619 165.2905 230.1962  3.42279366 31536
Epoch: 2026-06-19T23:59Z
TLE epoch observation values (Epoch: 2026-06-19T23:59:28.579Z)
Latitude
0.00006°
Longitude
137.11568°
Altitude
22,508.916 km
Speed
2.483 km/s
True Right ascension
03h 00m 49s
True Declination
0° 00' 00"
Sunlit
Object was in daylight at epoch
Visualization orbit readout
Latitude
Unknown
Longitude
Unknown
Altitude
Unknown
Speed
Unknown
Apparent Right ascension
Unknown
Apparent Declination
Unknown
Sunlit
N/A
Visualization observer readout
Local Sidereal Time
21:32:04
Azimuth
Unknown
Elevation
Unknown
Doppler factor
Unknown
Orbital elements
Apogee altitude
24,245.61 km
Perigee altitude
204.356 km
Semi-major axis
18,603.12 km
Eccentricity
0.64616
Inclination
19.2255°
RAAN
45.2098°
Arg. of periapsis
165.2905°
True anomaly
194.6937°
Mean anomaly
230.1962°
Eccentric anomaly
211.08257°
Mean motion
0.85539 °/min
Orbital period
420.86 mins
BSTAR
0.0010262
Loading maneuver chart data...
Computing Atmospheric mass density...
Loading historical data...
Loading historical data...
Loading historical data...
Loading historical data...
Loading historical data...
Loading historical data...
Loading historical data...
Other satellites on launch #76 in the year 2023 (2023-05-29 UTC)

Documentation

Showing up to 5 results
|